#timestamp,LO_Frequency,Hit,StdDev 
1521025215.0,286046998.3,N
1521025215.9,286046998.3,N
1521025235.8,286046997.1,N
1521025255.6,286046997.8,N
1521025275.4,286046999.0,N
1521025295.3,286047001.0,N
1521025315.1,286046999.9,N
1521025335.8,286046998.3,N
1521025355.7,286046998.9,N
1521025375.5,286046998.2,N
1521025395.4,286047000.2,N
1521025415.2,286047000.0,N
1521025435.0,286047000.9,N
1521025435.9,286047000.9,N
1521025455.8,286047001.2,N
1521025475.0,286047001.1,N
1521025475.9,286047001.1,N
1521025495.8,286047001.0,N
1521025515.6,286047000.5,N
1521025535.4,286046998.6,N
1521025555.3,286046998.2,N
1521025575.1,286047000.3,N
1521025595.8,286046998.2,N
1521025615.7,286047000.5,N
1521025635.5,286047000.9,N
1521025655.4,286046998.1,N
1521025675.2,286046998.7,N
1521025695.0,286046998.9,N
1521025695.9,286046998.9,N
1521025715.8,286046996.6,N
1521025735.6,286046999.3,N
1521025755.4,286046999.0,N
1521025775.3,286046999.4,N
1521025795.1,286046997.2,N
1521025815.9,286046999.5,N
1521025835.7,286046999.1,N
1521025855.5,286046999.2,N
1521025875.4,286046999.6,N
1521025895.2,286047001.1,N
1521025915.0,286047000.9,N
1521025915.9,286047000.9,N
1521025935.8,286047000.4,N
1521025955.6,286046999.5,N
1521025975.5,286046999.2,N
1521025995.3,286046998.3,N
1521026015.1,286046999.6,N
1521026035.9,286046999.5,N
1521026055.7,286046999.6,N
1521026075.5,286046999.3,N
1521026095.4,286046998.9,N
1521026115.2,286046998.4,N
1521026135.1,286046999.3,N
1521026136.0,286046999.3,N
1521026155.8,286046998.5,N
1521026175.6,286047001.1,N
1521026195.5,286046998.2,N
1521026215.3,286046998.9,N
1521026235.1,286046998.3,N
1521026255.9,286047000.9,N
1521026275.7,286047000.5,N
1521026295.6,286047000.5,N
1521026315.4,286047001.1,N
1521026335.2,286046999.6,N
1521026355.1,286046997.0,Y
1521026356.0,286046997.0,P
1521026375.8,286046999.4,N
1521026395.7,286046998.4,N
1521026415.5,286046998.9,N
1521026435.3,286046998.3,N
1521026455.2,286046999.4,N
1521026475.0,286046999.1,N
1521026475.9,286046999.1,N
1521026495.8,286046999.5,N
1521026515.6,286046998.6,N
1521026535.4,286046999.0,N
1521026555.3,286046996.6,Y
1521026575.1,286047001.2,P
1521026595.9,286046998.1,N
1521026615.7,286047000.0,N
1521026635.5,286047002.2,N
1521026655.4,286047002.8,N
1521026675.2,286047000.2,N
1521026695.1,286047000.1,N
1521026696.0,286047000.1,N
1521026715.8,286047002.1,N
1521026735.6,286047001.7,N
1521026755.5,286047000.3,N
1521026775.3,286047000.3,N
1521026795.2,286047000.8,N
1521026815.9,286046998.3,N
1521026835.7,286047000.8,N
1521026855.6,286047001.2,N
1521026875.4,286047002.8,N
1521026895.2,286047000.3,N
1521026915.1,286047002.5,N
1521026916.0,286047002.5,N
1521026935.8,286046999.7,N
1521026955.7,286046999.7,N
1521026975.5,286047001.5,N
1521026995.3,286047004.4,Y
1521027015.2,286047002.6,P
1521027035.0,286047002.4,N
1521027035.9,286047002.4,N
1521027055.7,286046999.8,N
1521027075.6,286047000.0,N
1521027095.4,286047002.7,N
1521027115.3,286047001.9,N
1521027135.1,286047002.7,N
1521027136.0,286047002.7,N
1521027155.8,286047000.9,N
1521027175.7,286046998.3,N
1521027195.5,286046998.5,N
1521027215.4,286046998.7,N
1521027235.2,286046998.2,N
1521027255.0,286046998.6,N
1521027255.9,286046998.6,N
1521027275.8,286046998.6,N
1521027295.6,286046998.6,N
1521027315.4,286047000.7,N
1521027335.3,286046998.3,N
1521027355.1,286047000.0,N
1521027375.9,286046999.8,N
1521027395.7,286047000.1,N
1521027415.5,286047002.8,N
1521027435.4,286047002.2,N
1521027455.2,286046999.8,N
1521027475.0,286047002.3,N
1521027475.9,286047002.3,N
1521027495.8,286047002.8,N
1521027515.6,286046999.8,N
1521027535.5,286047002.5,N
1521027555.3,286047001.9,N
1521027575.1,286047001.6,N
1521027595.9,286047002.6,N
1521027615.7,286047002.5,N
1521027635.5,286047001.4,N
1521027655.4,286047004.3,N
1521027675.2,286047002.0,N
1521027695.1,286047000.2,N
1521027696.0,286047000.2,N
1521027715.8,286047000.1,N
1521027735.6,286046999.8,N
1521027755.5,286046999.9,N
1521027775.3,286047002.6,N
1521027795.1,286047000.6,N
1521027815.9,286047000.0,N
1521027835.7,286047002.4,N
1521027855.6,286047002.4,N
1521027875.4,286047001.6,N
1521027895.2,286047002.1,N
1521027915.1,286047001.7,N
1521027916.0,286047001.7,N
1521027935.8,286047001.4,N
1521027955.7,286047004.4,Y
1521027975.5,286047000.1,P
1521027995.3,286047000.5,N
1521028015.2,286046998.6,N
1521028035.9,286047000.7,N
1521028055.7,286047000.6,N
1521028075.6,286047001.0,N
1521028095.4,286047001.1,N
1521028115.2,286046998.6,N
1521028135.1,286046997.0,Y
1521028136.0,286046997.0,P
1521028155.8,286046996.6,N
1521028175.7,286046997.3,N
1521028195.5,286046997.5,N
1521028215.3,286046997.1,N
1521028235.2,286046997.1,N
1521028255.0,286046999.6,N
1521028255.9,286046999.6,N
1521028275.8,286046999.2,N
1521028295.6,286046997.0,N
1521028315.4,286046996.9,N
1521028335.3,286046996.9,N
1521028355.1,286046999.3,N
1521028375.8,286046998.7,N
1521028395.7,286046996.6,N
1521028415.5,286046999.6,N
1521028435.4,286046999.5,N
1521028455.2,286046996.9,N
1521028475.0,286046996.8,N
1521028475.9,286046996.8,N
1521028495.8,286046998.4,N
1521028515.6,286046999.3,N
1521028535.4,286046997.1,N
1521028555.3,286046997.1,N
1521028575.1,286046996.7,N
1521028595.9,286046996.7,N
1521028615.7,286046999.2,N
1521028635.5,286046998.8,N
1521028655.4,286047000.8,N
1521028675.2,286046998.2,N
1521028695.1,286047000.5,N
1521028696.0,286047000.5,N
1521028715.8,286047002.6,N
1521028735.6,286047002.4,N
1521028755.5,286047002.0,N
1521028775.3,286046999.7,N
1521028795.1,286047000.3,N
